Location: 22
(39.7117°N, 89.5929°W)
Time: 11:23:23
(UTC-06:00)

Vanguard 1 - All Passes

Search period start: 07 February 2023 00:00
Search period end: 17 February 2023 00:00
Orbit: 650 x 3831 km, 34.2° (Epoch: 06 February)

Date Brightness Start Highest point End Pass type
(mag) Time Alt. Az. Time Alt. Az. Time Alt. Az.
07 Feb - 01:54:32 10° SSE 01:56:49 13° SE 01:59:27 10° ESE visible
07 Feb - 04:10:04 10° SW 04:15:44 49° SSE 04:25:30 10° E visible
07 Feb - 06:28:45 10° W 06:36:41 64° S 06:51:46 10° ESE visible
07 Feb - 08:48:37 10° W 08:59:22 47° SSW 09:17:39 10° SE daylight
07 Feb - 11:11:44 10° W 11:23:08 23° SW 11:38:09 10° S daylight
08 Feb - 02:13:19 10° S 02:16:53 19° SE 02:21:30 10° E visible
08 Feb - 04:30:20 10° WSW 04:36:12 56° SSE 04:46:35 10° E visible
08 Feb - 06:49:14 10° W 06:57:25 61° S 07:12:48 10° ESE daylight
08 Feb - 09:09:27 10° W 09:20:13 40° SSW 09:37:44 10° SE daylight
08 Feb - 11:34:34 10° WSW 11:43:57 17° SW 11:55:26 10° S daylight
09 Feb - 02:32:53 10° SSW 02:37:03 27° SSE 02:42:51 10° E visible
09 Feb - 04:50:41 10° WSW 04:56:44 60° S 05:07:40 10° E visible
09 Feb - 07:09:46 10° W 07:18:09 55° SSW 07:33:40 10° ESE daylight
09 Feb - 09:30:31 10° W 09:41:03 33° SSW 09:57:21 10° SSE daylight
09 Feb - 12:00:29 10° SW 12:04:48 11° SW 12:09:29 10° SSW daylight
10 Feb - 02:52:48 10° SW 02:57:19 35° SSE 03:03:58 10° E visible
10 Feb - 05:11:04 10° WSW 05:17:19 61° S 05:28:44 10° ESE visible
10 Feb - 07:30:22 10° W 07:38:54 48° SSW 07:54:18 10° SE daylight
10 Feb - 09:51:55 10° W 10:01:53 26° SSW 10:16:24 10° SSE daylight
11 Feb - 00:57:48 10° SSE 00:58:45 11° SE 00:59:43 10° SE night (unlit)
11 Feb - 03:12:56 10° SW 03:17:39 44° SSE 03:24:58 10° E visible
11 Feb - 05:31:31 10° W 05:37:57 59° S 05:49:44 10° ESE visible
11 Feb - 07:51:03 10° W 07:59:41 41° SSW 08:14:39 10° SE daylight
11 Feb - 10:13:58 10° WSW 10:22:46 19° SSW 10:34:35 10° S daylight
12 Feb - 01:16:03 10° S 01:18:55 17° SSE 01:22:12 10° ESE night (unlit)
12 Feb - 03:33:12 10° WSW 03:38:06 50° SSE 03:45:55 10° E visible
12 Feb - 05:52:00 10° W 05:58:36 54° S 06:10:38 10° ESE visible
12 Feb - 08:11:55 10° W 08:20:30 34° SSW 08:34:37 10° SSE daylight
12 Feb - 10:37:27 10° WSW 10:43:40 13° SW 10:51:06 10° SSW daylight
13 Feb - 01:35:34 10° SSW 01:39:10 24° SSE 01:43:30 10° E visible
13 Feb - 03:53:33 10° WSW 03:58:36 54° S 04:06:51 10° E visible
13 Feb - 06:12:32 10° W 06:19:16 48° SSW 06:31:23 10° SE visible
13 Feb - 08:33:02 10° WSW 08:41:19 27° SSW 08:54:06 10° SSE daylight
14 Feb - 01:55:31 10° SW 01:59:29 31° SSE 02:04:31 10° E visible
14 Feb - 04:13:58 10° WSW 04:19:08 55° S 04:27:45 10° ESE visible
14 Feb - 06:33:08 10° W 06:39:57 41° SSW 06:51:53 10° SE daylight
14 Feb - 08:54:38 10° WSW 09:02:10 21° SSW 09:12:53 10° SSE daylight
14 Feb - 23:59:50 10° SSE 00:00:43 10° SSE 00:01:36 10° SE night (unlit)
15 Feb - 02:15:41 10° SW 02:19:52 39° SSE 02:25:23 10° E visible
15 Feb - 04:34:24 10° W 04:39:42 52° S 04:48:36 10° ESE visible
15 Feb - 06:53:51 10° W 07:00:41 34° SSW 07:12:05 10° SE daylight
15 Feb - 09:17:11 10° WSW 09:23:03 15° SSW 09:30:30 10° S daylight
16 Feb - 00:18:12 10° SSW 00:21:03 16° SSE 00:23:53 10° ESE night (unlit)
16 Feb - 02:35:59 10° WSW 02:40:18 45° S 02:46:12 10° E visible
16 Feb - 04:54:54 10° W 05:00:17 47° S 05:09:20 10° ESE visible
16 Feb - 07:14:47 10° WSW 07:21:26 27° SSW 07:31:53 10° SSE daylight
